Time,TemperatureF,DewpointF,PressureIn,WindDirection,WindDirectionDegrees,WindSpeedMPH,WindSpeedGustMPH,Humidity,HourlyPrecipIn,Conditions,Clouds,dailyrainin,SoftwareType,DateUTC
2013-07-20 00:04:00,77.4,62.9,29.84,NE,45,1.1,1.1,61,0.00,,---,0.00,VWS V14.01,2013-07-20 05:04:00,
2013-07-20 00:09:00,77.4,62.9,29.84,NE,45,1.6,1.8,61,0.00,,---,0.00,VWS V14.01,2013-07-20 05:09:00,
2013-07-20 00:14:00,77.2,62.2,29.84,ENE,68,1.8,1.8,60,0.00,,---,0.00,VWS V14.01,2013-07-20 05:14:00,
2013-07-20 00:19:00,77.2,62.7,29.84,NE,45,2.0,2.0,61,0.00,,---,0.00,VWS V14.01,2013-07-20 05:19:00,
2013-07-20 00:24:00,77.0,63.0,29.84,NE,45,0.4,0.7,62,0.00,,---,0.00,VWS V14.01,2013-07-20 05:24:00,
2013-07-20 00:29:00,77.0,63.0,29.84,ENE,68,0.0,0.0,62,0.00,,---,0.00,VWS V14.01,2013-07-20 05:29:00,
2013-07-20 00:34:00,77.0,63.0,29.84,ENE,68,1.8,1.8,62,0.00,,---,0.00,VWS V14.01,2013-07-20 05:34:00,
2013-07-20 00:39:00,77.0,63.0,29.84,NE,45,0.4,0.4,62,0.00,,---,0.00,VWS V14.01,2013-07-20 05:39:00,
2013-07-20 00:44:00,77.0,63.0,29.84,NE,45,0.4,1.6,62,0.00,,---,0.00,VWS V14.01,2013-07-20 05:44:00,
2013-07-20 00:49:00,77.0,63.0,29.84,NNE,22,2.5,2.5,62,0.00,,---,0.00,VWS V14.01,2013-07-20 05:49:00,
2013-07-20 00:54:00,77.0,63.0,29.84,NE,45,1.6,1.6,62,0.00,,---,0.00,VWS V14.01,2013-07-20 05:54:00,
2013-07-20 00:59:00,77.0,63.0,29.84,ENE,68,0.2,1.3,62,0.00,,---,0.00,VWS V14.01,2013-07-20 05:59:00,
2013-07-20 01:04:00,76.9,63.4,29.84,ENE,68,2.5,2.5,63,0.00,,---,0.00,VWS V14.01,2013-07-20 06:04:00,
2013-07-20 01:09:00,76.7,63.2,29.85,NNE,22,2.7,3.1,63,0.00,,---,0.00,VWS V14.01,2013-07-20 06:09:00,
2013-07-20 01:14:00,76.7,63.2,29.84,ENE,68,1.1,1.8,63,0.00,,---,0.00,VWS V14.01,2013-07-20 06:14:00,
2013-07-20 01:19:00,76.5,63.4,29.84,ENE,68,2.0,2.0,64,0.00,,---,0.00,VWS V14.01,2013-07-20 06:19:00,
2013-07-20 01:24:00,76.3,63.2,29.84,NNE,22,2.0,2.0,64,0.00,,---,0.00,VWS V14.01,2013-07-20 06:24:00,
2013-07-20 01:29:00,76.3,63.7,29.84,NE,45,2.2,3.1,65,0.00,,---,0.00,VWS V14.01,2013-07-20 06:29:00,
2013-07-20 01:34:00,76.1,63.5,29.84,NE,45,2.0,2.0,65,0.00,,---,0.00,VWS V14.01,2013-07-20 06:34:00,
2013-07-20 01:39:00,76.0,63.4,29.84,NE,45,2.9,2.9,65,0.00,,---,0.00,VWS V14.01,2013-07-20 06:39:00,
2013-07-20 01:44:00,76.1,63.5,29.84,ENE,68,0.4,2.0,65,0.00,,---,0.00,VWS V14.01,2013-07-20 06:44:00,
2013-07-20 01:49:00,76.1,63.5,29.84,NE,45,0.4,0.4,65,0.00,,---,0.00,VWS V14.01,2013-07-20 06:49:00,
2013-07-20 01:54:00,76.0,63.4,29.85,NE,45,0.0,0.2,65,0.00,,---,0.00,VWS V14.01,2013-07-20 06:54:00,
2013-07-20 01:59:00,76.1,63.5,29.85,NE,45,2.7,2.7,65,0.00,,---,0.00,VWS V14.01,2013-07-20 06:59:00,
2013-07-20 02:04:00,76.0,63.4,29.85,NNE,22,0.9,2.2,65,0.00,,---,0.00,VWS V14.01,2013-07-20 07:04:00,
2013-07-20 02:10:00,76.0,63.4,29.85,NE,45,0.4,1.1,65,0.00,,---,0.00,VWS V14.01,2013-07-20 07:10:00,
2013-07-20 02:15:00,75.8,63.2,29.85,NE,45,0.0,0.4,65,0.00,,---,0.00,VWS V14.01,2013-07-20 07:15:00,
2013-07-20 02:20:00,75.6,63.0,29.84,NNE,22,0.2,1.8,65,0.00,,---,0.00,VWS V14.01,2013-07-20 07:20:00,
2013-07-20 02:25:00,75.2,63.1,29.84,NE,45,3.8,3.8,66,0.00,,---,0.00,VWS V14.01,2013-07-20 07:25:00,
2013-07-20 02:30:00,75.1,63.0,29.84,NNE,22,2.0,2.7,66,0.00,,---,0.00,VWS V14.01,2013-07-20 07:30:00,
2013-07-20 02:35:00,74.9,62.8,29.84,NE,45,1.8,4.3,66,0.00,,---,0.00,VWS V14.01,2013-07-20 07:35:00,
2013-07-20 02:40:00,74.5,62.8,29.84,ENE,68,3.6,4.3,67,0.00,,---,0.00,VWS V14.01,2013-07-20 07:40:00,
2013-07-20 02:45:00,74.2,62.5,29.84,ENE,68,2.5,2.5,67,0.00,,---,0.00,VWS V14.01,2013-07-20 07:45:00,
2013-07-20 02:50:00,74.0,62.8,29.84,East,90,0.2,1.1,68,0.00,,---,0.00,VWS V14.01,2013-07-20 07:50:00,
2013-07-20 02:55:00,73.8,62.6,29.83,ENE,68,0.9,2.0,68,0.00,,---,0.00,VWS V14.01,2013-07-20 07:55:00,
2013-07-20 03:00:00,73.8,62.6,29.83,East,90,1.8,2.2,68,0.00,,---,0.00,VWS V14.01,2013-07-20 08:00:00,
2013-07-20 03:05:00,73.6,62.8,29.83,East,90,0.2,0.2,69,0.00,,---,0.00,VWS V14.01,2013-07-20 08:05:00,
2013-07-20 03:10:00,73.4,62.6,29.83,East,90,1.8,1.8,69,0.00,,---,0.00,VWS V14.01,2013-07-20 08:10:00,
2013-07-20 03:15:00,73.3,62.5,29.83,NE,45,1.8,1.8,69,0.00,,---,0.00,VWS V14.01,2013-07-20 08:15:00,
2013-07-20 03:20:00,73.1,62.7,29.83,East,90,2.7,2.7,70,0.00,,---,0.00,VWS V14.01,2013-07-20 08:20:00,
2013-07-20 03:25:00,73.1,62.7,29.83,ENE,68,2.2,2.5,70,0.00,,---,0.00,VWS V14.01,2013-07-20 08:25:00,
2013-07-20 03:30:00,72.9,62.1,29.83,ENE,68,0.2,0.2,69,0.00,,---,0.00,VWS V14.01,2013-07-20 08:30:00,
2013-07-20 03:35:00,72.5,62.2,29.83,ESE,112,1.3,1.3,70,0.00,,---,0.00,VWS V14.01,2013-07-20 08:35:00,
2013-07-20 03:40:00,72.4,62.1,29.83,East,90,2.2,2.5,70,0.00,,---,0.00,VWS V14.01,2013-07-20 08:40:00,
2013-07-20 03:45:00,72.4,62.5,29.83,ESE,112,2.2,3.1,71,0.00,,---,0.00,VWS V14.01,2013-07-20 08:45:00,
2013-07-20 03:50:00,72.0,61.7,29.82,ESE,112,2.7,2.7,70,0.00,,---,0.00,VWS V14.01,2013-07-20 08:50:00,
2013-07-20 03:55:00,72.0,61.7,29.82,ESE,112,1.3,1.3,70,0.00,,---,0.00,VWS V14.01,2013-07-20 08:55:00,
2013-07-20 04:00:00,71.6,61.3,29.82,East,90,1.8,1.8,70,0.00,,---,0.00,VWS V14.01,2013-07-20 09:00:00,
2013-07-20 04:05:00,71.6,61.3,29.82,SE,135,1.3,1.3,70,0.00,,---,0.00,VWS V14.01,2013-07-20 09:05:00,
2013-07-20 04:10:00,71.6,60.5,29.81,ESE,112,0.2,0.9,68,0.00,,---,0.00,VWS V14.01,2013-07-20 09:10:00,
2013-07-20 04:15:00,71.5,60.8,29.81,ESE,112,1.6,2.2,69,0.00,,---,0.00,VWS V14.01,2013-07-20 09:15:00,
2013-07-20 04:20:00,71.5,60.8,29.81,ESE,112,1.3,1.8,69,0.00,,---,0.00,VWS V14.01,2013-07-20 09:20:00,
2013-07-20 04:25:00,71.3,60.6,29.81,SSE,158,1.8,1.8,69,0.00,,---,0.00,VWS V14.01,2013-07-20 09:25:00,
2013-07-20 04:30:00,71.1,60.4,29.81,ESE,112,1.1,2.0,69,0.00,,---,0.00,VWS V14.01,2013-07-20 09:30:00,
2013-07-20 04:35:00,70.9,60.2,29.81,ESE,112,0.4,0.9,69,0.00,,---,0.00,VWS V14.01,2013-07-20 09:35:00,
2013-07-20 04:40:00,70.7,60.0,29.81,ESE,112,2.5,2.5,69,0.00,,---,0.00,VWS V14.01,2013-07-20 09:40:00,
2013-07-20 04:45:00,70.6,60.0,29.81,East,90,0.0,1.8,69,0.00,,---,0.00,VWS V14.01,2013-07-20 09:45:00,
2013-07-20 04:50:00,70.6,60.3,29.81,SSE,158,1.6,2.7,70,0.00,,---,0.00,VWS V14.01,2013-07-20 09:50:00,
2013-07-20 04:55:00,70.6,60.0,29.80,SE,135,0.9,1.6,69,0.00,,---,0.00,VWS V14.01,2013-07-20 09:55:00,
2013-07-20 05:00:00,70.6,59.5,29.81,SE,135,1.1,1.1,68,0.00,,---,0.00,VWS V14.01,2013-07-20 10:00:00,
2013-07-20 05:05:00,70.6,59.5,29.81,SE,135,1.1,1.1,68,0.00,,---,0.00,VWS V14.01,2013-07-20 10:05:00,
2013-07-20 05:10:00,70.4,59.8,29.81,SSE,158,1.1,2.0,69,0.00,,---,0.00,VWS V14.01,2013-07-20 10:10:00,
2013-07-20 05:14:00,70.2,59.6,29.81,SSE,158,1.8,1.8,69,0.00,,---,0.00,VWS V14.01,2013-07-20 10:14:00,
2013-07-20 05:19:00,69.8,59.2,29.81,SE,135,1.8,2.0,69,0.00,,---,0.00,VWS V14.01,2013-07-20 10:19:00,
2013-07-20 05:25:00,69.8,59.6,29.81,SE,135,0.7,1.1,70,0.00,,---,0.00,VWS V14.01,2013-07-20 10:25:00,
2013-07-20 05:30:00,69.7,59.1,29.82,SE,135,0.2,0.4,69,0.00,,---,0.00,VWS V14.01,2013-07-20 10:30:00,
2013-07-20 05:35:00,69.5,58.9,29.81,ESE,112,0.9,1.1,69,0.00,,---,0.00,VWS V14.01,2013-07-20 10:35:00,
2013-07-20 05:40:00,69.1,59.3,29.81,SSE,158,1.6,1.6,71,0.00,,---,0.00,VWS V14.01,2013-07-20 10:40:00,
2013-07-20 05:45:00,68.9,58.7,29.82,SE,135,0.4,1.1,70,0.00,,---,0.00,VWS V14.01,2013-07-20 10:45:00,
2013-07-20 05:50:00,68.8,59.0,29.81,SE,135,1.6,2.0,71,0.00,,---,0.00,VWS V14.01,2013-07-20 10:50:00,
2013-07-20 05:55:00,68.6,59.6,29.82,SSE,158,1.8,2.2,73,0.00,,---,0.00,VWS V14.01,2013-07-20 10:55:00,
2013-07-20 06:00:00,68.4,59.4,29.82,SSE,158,0.9,2.0,73,0.00,,---,0.00,VWS V14.01,2013-07-20 11:00:00,
2013-07-20 06:05:00,68.2,59.2,29.82,SSE,158,0.4,1.1,73,0.00,,---,0.00,VWS V14.01,2013-07-20 11:05:00,
2013-07-20 06:10:00,68.0,58.7,29.81,ESE,112,0.9,1.1,72,0.00,,---,0.00,VWS V14.01,2013-07-20 11:10:00,
2013-07-20 06:15:00,67.9,58.9,29.81,ESE,112,0.4,0.4,73,0.00,,---,0.00,VWS V14.01,2013-07-20 11:15:00,
2013-07-20 06:20:00,67.9,58.9,29.81,ESE,112,1.1,1.1,73,0.00,,---,0.00,VWS V14.01,2013-07-20 11:20:00,
2013-07-20 06:25:00,67.9,59.7,29.81,SSE,158,1.8,1.8,75,0.00,,---,0.00,VWS V14.01,2013-07-20 11:25:00,
2013-07-20 06:30:00,67.7,59.1,29.82,SW,225,0.7,0.7,74,0.00,,---,0.00,VWS V14.01,2013-07-20 11:30:00,
2013-07-20 06:35:00,67.7,59.9,29.82,SSW,202,0.4,0.4,76,0.00,,---,0.00,VWS V14.01,2013-07-20 11:35:00,
2013-07-20 06:40:00,67.5,59.3,29.82,South,180,0.4,0.4,75,0.00,,---,0.00,VWS V14.01,2013-07-20 11:40:00,
2013-07-20 06:45:00,67.5,58.9,29.82,South,180,0.2,0.2,74,0.00,,---,0.00,VWS V14.01,2013-07-20 11:45:00,
2013-07-20 06:50:00,67.3,59.1,29.82,South,180,0.4,0.4,75,0.00,,---,0.00,VWS V14.01,2013-07-20 11:50:00,
2013-07-20 06:55:00,67.3,59.1,29.82,South,180,0.4,0.7,75,0.00,,---,0.00,VWS V14.01,2013-07-20 11:55:00,
2013-07-20 07:00:00,67.3,59.1,29.83,South,180,0.0,0.0,75,0.00,,---,0.00,VWS V14.01,2013-07-20 12:00:00,
2013-07-20 07:05:00,67.5,60.0,29.83,East,90,0.7,1.1,77,0.00,,---,0.00,VWS V14.01,2013-07-20 12:05:00,
2013-07-20 07:10:00,68.0,60.5,29.84,NE,45,0.7,0.9,77,0.00,,---,0.00,VWS V14.01,2013-07-20 12:10:00,
2013-07-20 07:15:00,68.6,61.1,29.84,ENE,68,0.9,1.1,77,0.00,,---,0.00,VWS V14.01,2013-07-20 12:15:00,
2013-07-20 07:20:00,68.8,60.9,29.83,East,90,0.2,1.1,76,0.00,,---,0.00,VWS V14.01,2013-07-20 12:20:00,
2013-07-20 07:25:00,69.1,61.2,29.83,SE,135,0.4,0.7,76,0.00,,---,0.00,VWS V14.01,2013-07-20 12:25:00,
2013-07-20 07:30:00,69.3,61.4,29.84,ESE,112,2.2,2.2,76,0.00,,---,0.00,VWS V14.01,2013-07-20 12:30:00,
2013-07-20 07:35:00,69.7,61.4,29.84,SE,135,0.2,0.4,75,0.00,,---,0.00,VWS V14.01,2013-07-20 12:35:00,
2013-07-20 07:40:00,70.2,61.5,29.84,SE,135,1.6,2.5,74,0.00,,---,0.00,VWS V14.01,2013-07-20 12:40:00,
2013-07-20 07:45:00,70.6,61.9,29.84,SSE,158,1.6,1.8,74,0.00,,---,0.00,VWS V14.01,2013-07-20 12:45:00,
2013-07-20 07:50:00,70.9,62.2,29.83,SE,135,1.8,1.8,74,0.00,,---,0.00,VWS V14.01,2013-07-20 12:50:00,
2013-07-20 07:55:00,71.3,61.8,29.83,SSE,158,0.9,2.5,72,0.00,,---,0.00,VWS V14.01,2013-07-20 12:55:00,
2013-07-20 08:00:00,71.6,61.7,29.83,SSE,158,3.6,4.3,71,0.00,,---,0.00,VWS V14.01,2013-07-20 13:00:00,
2013-07-20 08:05:00,72.0,62.1,29.83,SE,135,2.5,2.5,71,0.00,,---,0.00,VWS V14.01,2013-07-20 13:05:00,
2013-07-20 08:10:00,72.2,62.7,29.84,ESE,112,2.5,4.0,72,0.00,,---,0.00,VWS V14.01,2013-07-20 13:10:00,
2013-07-20 08:15:00,72.4,62.5,29.83,SSE,158,2.5,3.8,71,0.00,,---,0.00,VWS V14.01,2013-07-20 13:15:00,
2013-07-20 08:20:00,72.7,62.4,29.83,South,180,3.1,6.5,70,0.00,,---,0.00,VWS V14.01,2013-07-20 13:20:00,
2013-07-20 08:25:00,72.9,62.5,29.84,South,180,3.4,3.8,70,0.00,,---,0.00,VWS V14.01,2013-07-20 13:25:00,
2013-07-20 08:30:00,73.3,62.5,29.84,SE,135,1.8,4.3,69,0.00,,---,0.00,VWS V14.01,2013-07-20 13:30:00,
2013-07-20 08:35:00,73.6,62.8,29.84,ESE,112,4.7,5.4,69,0.00,,---,0.00,VWS V14.01,2013-07-20 13:35:00,
2013-07-20 08:41:00,74.2,63.8,29.84,SE,135,0.4,3.4,70,0.00,,---,0.00,VWS V14.01,2013-07-20 13:41:00,
2013-07-20 08:46:00,75.1,64.2,29.84,SSE,158,2.5,2.5,69,0.00,,---,0.00,VWS V14.01,2013-07-20 13:46:00,
2013-07-20 08:51:00,76.0,64.3,29.84,SE,135,1.8,2.0,67,0.00,,---,0.00,VWS V14.01,2013-07-20 13:51:00,
2013-07-20 08:56:00,76.7,64.1,29.86,ESE,112,3.1,3.1,65,0.00,,---,0.00,VWS V14.01,2013-07-20 13:56:00,
2013-07-20 09:01:00,77.0,63.9,29.86,SE,135,3.1,5.1,64,0.00,,---,0.00,VWS V14.01,2013-07-20 14:01:00,
2013-07-20 09:06:00,77.0,64.3,29.86,East,90,1.8,1.8,65,0.00,,---,0.00,VWS V14.01,2013-07-20 14:06:00,
2013-07-20 09:11:00,77.2,64.1,29.87,ESE,112,0.4,2.9,64,0.00,,---,0.00,VWS V14.01,2013-07-20 14:11:00,
2013-07-20 09:16:00,76.9,63.8,29.87,East,90,3.6,4.7,64,0.00,,---,0.00,VWS V14.01,2013-07-20 14:16:00,
2013-07-20 09:21:00,76.7,64.1,29.87,ESE,112,2.7,2.7,65,0.00,,---,0.00,VWS V14.01,2013-07-20 14:21:00,
2013-07-20 09:26:00,76.3,63.7,29.87,NE,45,4.0,4.0,65,0.00,,---,0.00,VWS V14.01,2013-07-20 14:26:00,
2013-07-20 09:31:00,76.3,63.7,29.87,ESE,112,1.1,2.5,65,0.00,,---,0.00,VWS V14.01,2013-07-20 14:31:00,
2013-07-20 09:36:00,76.7,64.1,29.87,ENE,68,2.0,2.7,65,0.00,,---,0.00,VWS V14.01,2013-07-20 14:36:00,
2013-07-20 09:41:00,77.6,65.3,29.87,East,90,2.5,2.5,66,0.00,,---,0.00,VWS V14.01,2013-07-20 14:41:00,
2013-07-20 09:46:00,79.0,65.3,29.87,ESE,112,1.6,1.6,63,0.00,,---,0.00,VWS V14.01,2013-07-20 14:46:00,
2013-07-20 09:51:00,80.5,64.9,29.86,East,90,3.8,3.8,59,0.00,,---,0.00,VWS V14.01,2013-07-20 14:51:00,
2013-07-20 09:56:00,81.5,64.3,29.87,ENE,68,1.8,5.8,56,0.00,,---,0.00,VWS V14.01,2013-07-20 14:56:00,
2013-07-20 10:01:00,81.0,64.3,29.87,East,90,7.2,7.2,57,0.00,,---,0.00,VWS V14.01,2013-07-20 15:01:00,
2013-07-20 10:06:00,81.7,65.0,29.87,ENE,68,1.6,1.6,57,0.00,,---,0.00,VWS V14.01,2013-07-20 15:06:00,
2013-07-20 10:11:00,83.0,65.2,29.88,SE,135,4.3,5.6,55,0.00,,---,0.00,VWS V14.01,2013-07-20 15:11:00,
2013-07-20 10:16:00,84.2,66.3,29.88,ENE,68,0.4,0.4,55,0.00,,---,0.00,VWS V14.01,2013-07-20 15:16:00,
2013-07-20 10:21:00,85.1,67.1,29.89,ENE,68,6.3,6.3,55,0.00,,---,0.00,VWS V14.01,2013-07-20 15:21:00,
2013-07-20 10:26:00,83.9,64.9,29.89,ESE,112,2.5,4.0,53,0.00,,---,0.00,VWS V14.01,2013-07-20 15:26:00,
2013-07-20 10:31:00,83.7,64.8,29.89,NE,45,1.1,4.5,53,0.00,,---,0.00,VWS V14.01,2013-07-20 15:31:00,
2013-07-20 10:36:00,83.5,63.5,29.89,East,90,4.0,4.0,51,0.00,,---,0.00,VWS V14.01,2013-07-20 15:36:00,
2013-07-20 10:41:00,83.2,64.8,29.89,NNW,338,2.7,2.7,54,0.00,,---,0.00,VWS V14.01,2013-07-20 15:41:00,
2013-07-20 10:46:00,83.7,65.8,29.90,ENE,68,0.7,3.4,55,0.00,,---,0.00,VWS V14.01,2013-07-20 15:46:00,
2013-07-20 10:51:00,84.4,67.0,29.90,West,270,2.2,2.2,56,0.00,,---,0.00,VWS V14.01,2013-07-20 15:51:00,
2013-07-20 10:56:00,87.5,68.3,29.90,NNE,22,1.1,1.8,53,0.00,,---,0.00,VWS V14.01,2013-07-20 15:56:00,
2013-07-20 11:01:00,86.0,66.3,29.90,ESE,112,4.9,4.9,52,0.00,,---,0.00,VWS V14.01,2013-07-20 16:01:00,
2013-07-20 11:06:00,85.0,66.0,29.91,NE,45,1.3,1.6,53,0.00,,---,0.00,VWS V14.01,2013-07-20 16:06:00,
2013-07-20 11:11:00,85.7,66.6,29.91,East,90,1.8,2.2,53,0.00,,---,0.00,VWS V14.01,2013-07-20 16:11:00,
2013-07-20 11:16:00,85.9,65.7,29.91,SE,135,5.8,5.8,51,0.00,,---,0.00,VWS V14.01,2013-07-20 16:16:00,
2013-07-20 11:21:00,85.1,65.5,29.90,NNE,22,2.0,2.0,52,0.00,,---,0.00,VWS V14.01,2013-07-20 16:21:00,
2013-07-20 11:26:00,85.0,65.4,29.90,NE,45,6.3,6.3,52,0.00,,---,0.00,VWS V14.01,2013-07-20 16:26:00,
2013-07-20 11:31:00,85.0,65.4,29.90,West,270,5.4,5.4,52,0.00,,---,0.00,VWS V14.01,2013-07-20 16:31:00,
2013-07-20 11:36:00,85.0,64.9,29.89,NNE,22,2.9,2.9,51,0.00,,---,0.00,VWS V14.01,2013-07-20 16:36:00,
2013-07-20 11:42:00,85.3,64.6,29.89,ENE,68,5.6,6.9,50,0.00,,---,0.00,VWS V14.01,2013-07-20 16:42:00,
2013-07-20 11:47:00,85.3,64.6,29.89,ESE,112,3.6,4.7,50,0.00,,---,0.00,VWS V14.01,2013-07-20 16:47:00,
2013-07-20 11:52:00,85.7,64.4,29.88,East,90,1.8,5.4,49,0.00,,---,0.00,VWS V14.01,2013-07-20 16:52:00,
2013-07-20 11:57:00,87.1,63.2,29.88,East,90,5.8,6.3,45,0.00,,---,0.00,VWS V14.01,2013-07-20 16:57:00,
2013-07-20 12:02:00,85.9,63.3,29.88,East,90,2.5,2.7,47,0.00,,---,0.00,VWS V14.01,2013-07-20 17:02:00,
2013-07-20 12:07:00,85.9,62.7,29.87,ESE,112,1.8,1.8,46,0.00,,---,0.00,VWS V14.01,2013-07-20 17:07:00,
2013-07-20 12:12:00,86.2,63.6,29.87,ESE,112,1.8,4.0,47,0.00,,---,0.00,VWS V14.01,2013-07-20 17:12:00,
2013-07-20 12:17:00,87.7,64.4,29.87,NNW,338,0.7,4.3,46,0.00,,---,0.00,VWS V14.01,2013-07-20 17:17:00,
2013-07-20 12:22:00,88.6,65.2,29.87,ESE,112,6.9,6.9,46,0.00,,---,0.00,VWS V14.01,2013-07-20 17:22:00,
2013-07-20 12:27:00,89.3,65.8,29.86,SSW,202,1.6,1.6,46,0.00,,---,0.00,VWS V14.01,2013-07-20 17:27:00,
2013-07-20 12:32:00,90.2,66.0,29.86,South,180,3.1,3.1,45,0.00,,---,0.00,VWS V14.01,2013-07-20 17:32:00,
2013-07-20 12:37:00,90.9,65.3,29.86,East,90,3.8,3.8,43,0.00,,---,0.00,VWS V14.01,2013-07-20 17:37:00,
2013-07-20 12:42:00,91.6,66.0,29.85,ESE,112,2.7,2.7,43,0.00,,---,0.00,VWS V14.01,2013-07-20 17:42:00,
2013-07-20 12:47:00,92.3,65.9,29.84,SE,135,3.1,5.1,42,0.00,,---,0.00,VWS V14.01,2013-07-20 17:47:00,
2013-07-20 12:52:00,91.8,64.1,29.85,ESE,112,0.4,0.4,40,0.00,,---,0.00,VWS V14.01,2013-07-20 17:52:00,
2013-07-20 12:57:00,91.1,64.8,29.85,SE,135,3.1,3.1,42,0.00,,---,0.00,VWS V14.01,2013-07-20 17:57:00,
2013-07-20 13:02:00,91.4,65.1,29.84,SE,135,2.7,2.9,42,0.00,,---,0.00,VWS V14.01,2013-07-20 18:02:00,
2013-07-20 13:07:00,91.4,63.7,29.84,ESE,112,6.3,6.3,40,0.00,,---,0.00,VWS V14.01,2013-07-20 18:07:00,
2013-07-20 13:12:00,91.3,65.0,29.84,SSW,202,1.1,5.4,42,0.00,,---,0.00,VWS V14.01,2013-07-20 18:12:00,
2013-07-20 13:17:00,90.4,62.8,29.84,SE,135,1.1,1.8,40,0.00,,---,0.00,VWS V14.01,2013-07-20 18:17:00,
2013-07-20 13:22:00,89.5,63.4,29.84,SSE,158,3.6,3.6,42,0.00,,---,0.00,VWS V14.01,2013-07-20 18:22:00,
2013-07-20 13:28:00,90.2,63.3,29.84,SW,225,2.5,5.4,41,0.00,,---,0.00,VWS V14.01,2013-07-20 18:28:00,
2013-07-20 13:33:00,90.4,64.2,29.84,SSE,158,1.8,2.9,42,0.00,,---,0.00,VWS V14.01,2013-07-20 18:33:00,
2013-07-20 13:38:00,90.2,63.3,29.84,WSW,248,2.7,4.0,41,0.00,,---,0.00,VWS V14.01,2013-07-20 18:38:00,
2013-07-20 13:43:00,90.7,64.5,29.84,SSE,158,4.7,4.7,42,0.00,,---,0.00,VWS V14.01,2013-07-20 18:43:00,
2013-07-20 13:48:00,90.4,63.5,29.84,SSE,158,4.9,4.9,41,0.00,,---,0.00,VWS V14.01,2013-07-20 18:48:00,
2013-07-20 13:55:00,89.8,61.6,29.84,SW,225,2.0,6.5,39,0.00,,---,0.00,VWS V14.01,2013-07-20 18:55:00,
2013-07-20 14:00:00,90.0,63.2,29.84,SSE,158,4.5,7.6,41,0.00,,---,0.00,VWS V14.01,2013-07-20 19:00:00,
2013-07-20 14:05:00,89.6,64.2,29.84,SW,225,0.9,2.2,43,0.00,,---,0.00,VWS V14.01,2013-07-20 19:05:00,
2013-07-20 14:10:00,90.0,62.5,29.83,SW,225,2.7,4.7,40,0.00,,---,0.00,VWS V14.01,2013-07-20 19:10:00,
2013-07-20 14:15:00,90.4,64.2,29.84,SSE,158,3.6,6.0,42,0.00,,---,0.00,VWS V14.01,2013-07-20 19:15:00,
2013-07-20 14:20:00,89.6,63.5,29.84,SSW,202,0.9,1.6,42,0.00,,---,0.00,VWS V14.01,2013-07-20 19:20:00,
2013-07-20 14:25:00,89.5,64.1,29.84,SE,135,6.3,6.3,43,0.00,,---,0.00,VWS V14.01,2013-07-20 19:25:00,
2013-07-20 14:30:00,89.6,63.5,29.84,SSE,158,1.1,1.3,42,0.00,,---,0.00,VWS V14.01,2013-07-20 19:30:00,
2013-07-20 14:36:00,90.2,64.0,29.83,SE,135,4.9,4.9,42,0.00,,---,0.00,VWS V14.01,2013-07-20 19:36:00,
2013-07-20 14:41:00,90.4,63.5,29.84,WSW,248,4.7,4.7,41,0.00,,---,0.00,VWS V14.01,2013-07-20 19:41:00,
2013-07-20 14:46:00,90.5,63.6,29.83,SW,225,2.9,2.9,41,0.00,,---,0.00,VWS V14.01,2013-07-20 19:46:00,
2013-07-20 14:51:00,91.1,63.4,29.83,WSW,248,3.8,5.4,40,0.00,,---,0.00,VWS V14.01,2013-07-20 19:51:00,
2013-07-20 14:57:00,90.0,61.7,29.83,SSE,158,2.9,4.5,39,0.00,,---,0.00,VWS V14.01,2013-07-20 19:57:00,
2013-07-20 15:02:00,90.0,61.7,29.83,SSE,158,1.3,2.5,39,0.00,,---,0.00,VWS V14.01,2013-07-20 20:02:00,
2013-07-20 15:07:00,90.5,63.6,29.83,SSW,202,2.9,2.9,41,0.00,,---,0.00,VWS V14.01,2013-07-20 20:07:00,
2013-07-20 15:12:00,91.3,63.6,29.83,East,90,3.8,8.1,40,0.00,,---,0.00,VWS V14.01,2013-07-20 20:12:00,
2013-07-20 15:17:00,90.9,62.5,29.82,WSW,248,1.8,1.8,39,0.00,,---,0.00,VWS V14.01,2013-07-20 20:17:00,
2013-07-20 15:23:00,90.7,63.1,29.82,SSE,158,1.8,4.0,40,0.00,,---,0.00,VWS V14.01,2013-07-20 20:23:00,
2013-07-20 15:28:00,91.3,63.6,29.82,SSE,158,0.4,1.6,40,0.00,,---,0.00,VWS V14.01,2013-07-20 20:28:00,
2013-07-20 15:33:00,91.1,62.7,29.82,South,180,4.9,4.9,39,0.00,,---,0.00,VWS V14.01,2013-07-20 20:33:00,
2013-07-20 15:38:00,91.1,62.7,29.82,South,180,1.6,4.5,39,0.00,,---,0.00,VWS V14.01,2013-07-20 20:38:00,
2013-07-20 15:43:00,91.4,62.2,29.83,South,180,0.7,2.9,38,0.00,,---,0.00,VWS V14.01,2013-07-20 20:43:00,
2013-07-20 15:49:00,90.4,61.4,29.83,NE,45,1.1,4.0,38,0.00,,---,0.00,VWS V14.01,2013-07-20 20:49:00,
2013-07-20 15:54:00,90.4,63.5,29.83,South,180,1.8,2.0,41,0.00,,---,0.00,VWS V14.01,2013-07-20 20:54:00,
2013-07-20 15:59:00,91.4,61.5,29.83,SSW,202,0.9,0.9,37,0.00,,---,0.00,VWS V14.01,2013-07-20 20:59:00,
2013-07-20 16:04:00,91.4,63.7,29.83,SE,135,2.5,2.7,40,0.00,,---,0.00,VWS V14.01,2013-07-20 21:04:00,
2013-07-20 16:10:00,91.4,63.7,29.82,SE,135,1.1,2.5,40,0.00,,---,0.00,VWS V14.01,2013-07-20 21:10:00,
2013-07-20 16:16:00,92.2,64.4,29.82,East,90,1.1,1.3,40,0.00,,---,0.00,VWS V14.01,2013-07-20 21:16:00,
2013-07-20 16:21:00,90.5,62.9,29.82,NNW,338,0.9,0.9,40,0.00,,---,0.00,VWS V14.01,2013-07-20 21:21:00,
2013-07-20 16:26:00,90.5,63.6,29.82,East,90,1.1,1.1,41,0.00,,---,0.00,VWS V14.01,2013-07-20 21:26:00,
2013-07-20 16:31:00,90.5,64.3,29.81,ENE,68,4.9,4.9,42,0.00,,---,0.00,VWS V14.01,2013-07-20 21:31:00,
2013-07-20 16:36:00,90.4,63.5,29.81,SE,135,1.1,1.1,41,0.00,,---,0.00,VWS V14.01,2013-07-20 21:36:00,
2013-07-20 16:41:00,90.2,63.3,29.80,SSE,158,2.7,2.9,41,0.00,,---,0.00,VWS V14.01,2013-07-20 21:41:00,
2013-07-20 16:46:00,89.6,63.5,29.80,South,180,3.8,3.8,42,0.00,,---,0.00,VWS V14.01,2013-07-20 21:46:00,
2013-07-20 16:52:00,89.6,63.5,29.79,South,180,3.4,5.4,42,0.00,,---,0.00,VWS V14.01,2013-07-20 21:52:00,
2013-07-20 16:57:00,89.6,63.5,29.79,SW,225,6.3,6.3,42,0.00,,---,0.00,VWS V14.01,2013-07-20 21:57:00,
2013-07-20 17:02:00,89.3,63.2,29.78,SSE,158,6.0,7.6,42,0.00,,---,0.00,VWS V14.01,2013-07-20 22:02:00,
2013-07-20 17:07:00,89.3,64.6,29.78,SE,135,6.9,6.9,44,0.00,,---,0.00,VWS V14.01,2013-07-20 22:07:00,
2013-07-20 17:13:00,88.7,62.0,29.78,SSW,202,4.7,4.9,41,0.00,,---,0.00,VWS V14.01,2013-07-20 22:13:00,
2013-07-20 17:19:00,88.4,63.7,29.78,SSE,158,3.8,6.0,44,0.00,,---,0.00,VWS V14.01,2013-07-20 22:19:00,
2013-07-20 17:24:00,88.2,62.2,29.78,South,180,3.8,7.6,42,0.00,,---,0.00,VWS V14.01,2013-07-20 22:24:00,
2013-07-20 17:29:00,87.8,62.5,29.77,SW,225,4.7,8.1,43,0.00,,---,0.00,VWS V14.01,2013-07-20 22:29:00,
2013-07-20 17:34:00,87.3,62.1,29.77,SE,135,6.3,6.9,43,0.00,,---,0.00,VWS V14.01,2013-07-20 22:34:00,
2013-07-20 17:40:00,86.8,62.9,29.77,SSW,202,6.0,6.9,45,0.00,,---,0.00,VWS V14.01,2013-07-20 22:40:00,
2013-07-20 17:46:00,86.4,61.9,29.77,South,180,5.6,5.6,44,0.00,,---,0.00,VWS V14.01,2013-07-20 22:46:00,
2013-07-20 17:51:00,85.7,60.7,29.76,SE,135,8.5,8.9,43,0.00,,---,0.00,VWS V14.01,2013-07-20 22:51:00,
2013-07-20 17:56:00,85.7,61.9,29.76,WSW,248,5.4,5.4,45,0.00,,---,0.00,VWS V14.01,2013-07-20 22:56:00,
2013-07-20 18:01:00,86.0,62.2,29.76,SSW,202,4.5,4.5,45,0.00,,---,0.00,VWS V14.01,2013-07-20 23:01:00,
2013-07-20 18:06:00,86.4,61.3,29.76,SSE,158,11.2,11.2,43,0.00,,---,0.00,VWS V14.01,2013-07-20 23:06:00,
2013-07-20 18:12:00,86.4,60.6,29.75,WNW,292,8.3,8.5,42,0.00,,---,0.00,VWS V14.01,2013-07-20 23:12:00,
2013-07-20 18:17:00,86.6,58.7,29.75,SSE,158,5.1,7.6,39,0.00,,---,0.00,VWS V14.01,2013-07-20 23:17:00,
2013-07-20 18:22:00,86.8,58.2,29.75,SE,135,6.5,6.5,38,0.00,,---,0.00,VWS V14.01,2013-07-20 23:22:00,
2013-07-20 18:27:00,86.6,55.7,29.75,SSW,202,4.0,6.5,35,0.00,,---,0.00,VWS V14.01,2013-07-20 23:27:00,
2013-07-20 18:32:00,86.6,57.2,29.75,WSW,248,8.5,8.5,37,0.00,,---,0.00,VWS V14.01,2013-07-20 23:32:00,
2013-07-20 18:37:00,86.2,57.6,29.76,South,180,4.3,7.4,38,0.00,,---,0.00,VWS V14.01,2013-07-20 23:37:00,
2013-07-20 18:42:00,85.5,57.7,29.76,SSW,202,2.9,4.0,39,0.00,,---,0.00,VWS V14.01,2013-07-20 23:42:00,
2013-07-20 18:49:00,85.0,57.3,29.76,South,180,4.7,6.3,39,0.00,,---,0.00,VWS V14.01,2013-07-20 23:49:00,
2013-07-20 18:55:00,84.6,57.6,29.76,SSE,158,3.1,3.4,40,0.00,,---,0.00,VWS V14.01,2013-07-20 23:55:00,
2013-07-20 19:00:00,84.6,58.3,29.76,South,180,2.7,2.7,41,0.00,,---,0.00,VWS V14.01,2013-07-21 00:00:00,
2013-07-20 19:06:00,84.6,58.3,29.76,SSE,158,2.7,5.8,41,0.00,,---,0.00,VWS V14.01,2013-07-21 00:06:00,
2013-07-20 19:11:00,84.1,58.5,29.76,South,180,1.8,3.4,42,0.00,,---,0.00,VWS V14.01,2013-07-21 00:11:00,
2013-07-20 19:16:00,83.9,59.0,29.76,SE,135,3.4,4.7,43,0.00,,---,0.00,VWS V14.01,2013-07-21 00:16:00,
2013-07-20 19:21:00,84.1,59.2,29.76,SSE,158,1.3,2.5,43,0.00,,---,0.00,VWS V14.01,2013-07-21 00:21:00,
2013-07-20 19:26:00,84.2,59.3,29.76,South,180,2.0,2.0,43,0.00,,---,0.00,VWS V14.01,2013-07-21 00:26:00,
2013-07-20 19:31:00,84.4,58.8,29.76,SSE,158,2.5,2.9,42,0.00,,---,0.00,VWS V14.01,2013-07-21 00:31:00,
2013-07-20 19:36:00,84.4,59.5,29.76,SE,135,0.4,0.4,43,0.00,,---,0.00,VWS V14.01,2013-07-21 00:36:00,
2013-07-20 19:41:00,84.2,59.3,29.76,SE,135,0.0,2.2,43,0.00,,---,0.00,VWS V14.01,2013-07-21 00:41:00,
2013-07-20 19:47:00,83.9,59.0,29.76,SE,135,0.2,0.2,43,0.00,,---,0.00,VWS V14.01,2013-07-21 00:47:00,
2013-07-20 19:52:00,84.1,59.9,29.76,SE,135,0.0,0.0,44,0.00,,---,0.00,VWS V14.01,2013-07-21 00:52:00,
2013-07-20 19:57:00,84.2,60.0,29.77,East,90,0.0,0.4,44,0.00,,---,0.00,VWS V14.01,2013-07-21 00:57:00,
2013-07-20 20:02:00,84.2,60.0,29.77,East,90,1.3,1.3,44,0.00,,---,0.00,VWS V14.01,2013-07-21 01:02:00,
2013-07-20 20:07:00,84.4,60.1,29.77,East,90,0.7,0.7,44,0.00,,---,0.00,VWS V14.01,2013-07-21 01:07:00,
2013-07-20 20:12:00,84.6,60.3,29.77,East,90,0.7,0.9,44,0.00,,---,0.00,VWS V14.01,2013-07-21 01:12:00,
2013-07-20 20:17:00,84.2,60.0,29.77,East,90,0.9,0.9,44,0.00,,---,0.00,VWS V14.01,2013-07-21 01:17:00,
2013-07-20 20:23:00,83.3,60.4,29.77,SE,135,0.9,1.1,46,0.00,,---,0.00,VWS V14.01,2013-07-21 01:23:00,
2013-07-20 20:28:00,82.6,60.3,29.77,SE,135,0.4,0.4,47,0.00,,---,0.00,VWS V14.01,2013-07-21 01:28:00,
2013-07-20 20:34:00,82.1,59.9,29.77,ESE,112,0.0,0.9,47,0.00,,---,0.00,VWS V14.01,2013-07-21 01:34:00,
2013-07-20 20:39:00,81.7,59.5,29.78,ESE,112,0.0,0.0,47,0.00,,---,0.00,VWS V14.01,2013-07-21 01:39:00,
2013-07-20 20:44:00,81.4,59.8,29.78,ESE,112,0.0,0.2,48,0.00,,---,0.00,VWS V14.01,2013-07-21 01:44:00,
2013-07-20 20:50:00,81.0,60.1,29.78,ESE,112,0.4,1.1,49,0.00,,---,0.00,VWS V14.01,2013-07-21 01:50:00,
2013-07-20 20:55:00,80.8,59.9,29.78,ENE,68,1.3,1.3,49,0.00,,---,0.00,VWS V14.01,2013-07-21 01:55:00,
2013-07-20 21:00:00,80.5,60.2,29.78,ENE,68,1.1,1.6,50,0.00,,---,0.00,VWS V14.01,2013-07-21 02:00:00,
2013-07-20 21:05:00,80.3,60.0,29.79,SE,135,0.4,1.1,50,0.00,,---,0.00,VWS V14.01,2013-07-21 02:05:00,
2013-07-20 21:10:00,79.7,60.0,29.79,SE,135,0.4,0.4,51,0.00,,---,0.00,VWS V14.01,2013-07-21 02:10:00,
2013-07-20 21:15:00,79.2,59.5,29.79,SE,135,0.0,0.2,51,0.00,,---,0.00,VWS V14.01,2013-07-21 02:15:00,
2013-07-20 21:21:00,78.8,59.2,29.80,SE,135,0.0,0.0,51,0.00,,---,0.00,VWS V14.01,2013-07-21 02:21:00,
2013-07-20 21:26:00,78.5,59.4,29.80,SE,135,0.0,0.0,52,0.00,,---,0.00,VWS V14.01,2013-07-21 02:26:00,
2013-07-20 21:31:00,78.3,59.2,29.81,SE,135,0.0,0.0,52,0.00,,---,0.00,VWS V14.01,2013-07-21 02:31:00,
2013-07-20 21:36:00,77.8,59.3,29.81,SE,135,0.0,0.0,53,0.00,,---,0.00,VWS V14.01,2013-07-21 02:36:00,
2013-07-20 21:41:00,77.4,59.5,29.81,SE,135,0.4,0.4,54,0.00,,---,0.00,VWS V14.01,2013-07-21 02:41:00,
2013-07-20 21:46:00,77.0,59.6,29.81,SE,135,0.2,0.2,55,0.00,,---,0.00,VWS V14.01,2013-07-21 02:46:00,
2013-07-20 21:51:00,76.9,60.5,29.81,SSW,202,0.4,1.1,57,0.00,,---,0.00,VWS V14.01,2013-07-21 02:51:00,
2013-07-20 21:57:00,76.7,59.8,29.81,SSE,158,0.7,0.7,56,0.00,,---,0.00,VWS V14.01,2013-07-21 02:57:00,
2013-07-20 22:03:00,76.3,60.0,29.82,SSE,158,0.4,0.9,57,0.00,,---,0.00,VWS V14.01,2013-07-21 03:03:00,
2013-07-20 22:08:00,76.1,60.3,29.82,SSE,158,0.2,0.4,58,0.00,,---,0.00,VWS V14.01,2013-07-21 03:08:00,
2013-07-20 22:13:00,75.8,60.0,29.82,SSE,158,0.4,0.4,58,0.00,,---,0.00,VWS V14.01,2013-07-21 03:13:00,
2013-07-20 22:18:00,75.6,60.3,29.82,SSE,158,0.2,0.2,59,0.00,,---,0.00,VWS V14.01,2013-07-21 03:18:00,
2013-07-20 22:24:00,75.6,60.3,29.82,SSE,158,0.9,0.9,59,0.00,,---,0.00,VWS V14.01,2013-07-21 03:24:00,
2013-07-20 22:29:00,75.6,61.2,29.82,SSE,158,1.1,1.1,61,0.00,,---,0.00,VWS V14.01,2013-07-21 03:29:00,
2013-07-20 22:34:00,75.8,61.9,29.82,SSE,158,0.7,0.7,62,0.00,,---,0.00,VWS V14.01,2013-07-21 03:34:00,
2013-07-20 22:39:00,75.8,62.3,29.82,SSW,202,1.8,1.8,63,0.00,,---,0.00,VWS V14.01,2013-07-21 03:39:00,
2013-07-20 22:44:00,75.8,62.3,29.82,South,180,1.1,1.1,63,0.00,,---,0.00,VWS V14.01,2013-07-21 03:44:00,
2013-07-20 22:49:00,75.6,61.7,29.82,SSE,158,0.4,0.4,62,0.00,,---,0.00,VWS V14.01,2013-07-21 03:49:00,
2013-07-20 22:54:00,75.4,61.9,29.82,SSE,158,0.2,0.4,63,0.00,,---,0.00,VWS V14.01,2013-07-21 03:54:00,
2013-07-20 22:59:00,75.2,62.2,29.82,South,180,1.1,1.1,64,0.00,,---,0.00,VWS V14.01,2013-07-21 03:59:00,
2013-07-20 23:01:00,75.1,62.5,29.82,SSE,158,0.9,1.1,65,0.00,,---,0.00,VWS V14.01,2013-07-21 04:01:00,
2013-07-20 23:02:00,75.1,62.1,29.82,SSE,158,1.8,1.8,64,0.00,,---,0.00,VWS V14.01,2013-07-21 04:02:00,
2013-07-20 23:03:00,75.1,62.5,29.81,SSW,202,1.8,1.8,65,0.00,,---,0.00,VWS V14.01,2013-07-21 04:03:00,
2013-07-20 23:08:00,74.9,62.3,29.81,SSE,158,0.9,1.3,65,0.00,,---,0.00,VWS V14.01,2013-07-21 04:08:00,
2013-07-20 23:13:00,74.7,62.6,29.81,SSE,158,1.8,1.8,66,0.00,,---,0.00,VWS V14.01,2013-07-21 04:13:00,
2013-07-20 23:18:00,74.5,62.8,29.81,SSE,158,2.5,2.7,67,0.00,,---,0.00,VWS V14.01,2013-07-21 04:18:00,
2013-07-20 23:23:00,74.3,62.6,29.81,SSE,158,1.1,1.1,67,0.00,,---,0.00,VWS V14.01,2013-07-21 04:23:00,
2013-07-20 23:28:00,74.2,62.5,29.81,SSE,158,1.1,1.1,67,0.00,,---,0.00,VWS V14.01,2013-07-21 04:28:00,
2013-07-20 23:33:00,74.0,62.8,29.81,SSE,158,0.9,1.1,68,0.00,,---,0.00,VWS V14.01,2013-07-21 04:33:00,
2013-07-20 23:38:00,74.0,63.6,29.81,SSE,158,1.6,1.6,70,0.00,,---,0.00,VWS V14.01,2013-07-21 04:38:00,
2013-07-20 23:43:00,73.8,63.0,29.81,SSW,202,0.2,0.4,69,0.00,,---,0.00,VWS V14.01,2013-07-21 04:43:00,
2013-07-20 23:49:00,73.8,63.0,29.81,SSE,158,0.9,1.1,69,0.00,,---,0.00,VWS V14.01,2013-07-21 04:49:00,
2013-07-20 23:54:00,73.8,63.0,29.81,SSE,158,0.4,0.4,69,0.00,,---,0.00,VWS V14.01,2013-07-21 04:54:00,
2013-07-20 23:59:00,73.8,63.0,29.81,SSE,158,0.4,0.7,69,0.00,,---,0.00,VWS V14.01,2013-07-21 04:59:00,